TimeAEST,TemperatureF,Dew PointF,Humidity,Sea Level PressureIn,VisibilityMPH,Wind Direction,Wind SpeedMPH,Gust SpeedMPH,PrecipitationIn,Events,Conditions,WindDirDegrees,DateUTC
12:00 AM,65,63,92,29.95,,North,3.5,,,,,0,2013-07-20 14:00:00
12:00 AM,64.4,62.6,94,29.95,-9999.0,North,3.5,-,N/A,,Clear,360,2013-07-20 14:00:00
12:30 AM,68.0,64.4,88,29.95,6.2,SE,5.8,-,N/A,,Unknown,140,2013-07-20 14:30:00
1:00 AM,67,64,86,29.94,,SE,8.1,,,,,140,2013-07-20 15:00:00
1:00 AM,68.0,64.4,88,29.92,-9999.0,SE,8.1,-,N/A,,Clear,140,2013-07-20 15:00:00
1:30 AM,66.2,64.4,94,29.92,6.2,SSE,9.2,-,N/A,,Unknown,150,2013-07-20 15:30:00
2:00 AM,66.2,62.6,88,29.92,-9999.0,SSE,6.9,-,N/A,,Clear,160,2013-07-20 16:00:00
2:30 AM,66.2,62.6,88,29.92,6.2,SSE,8.1,-,N/A,,Unknown,150,2013-07-20 16:30:00
3:00 AM,65,63,89,29.92,,South,4.6,,,,,170,2013-07-20 17:00:00
3:00 AM,64.4,62.6,94,29.92,-9999.0,South,4.6,-,N/A,,Clear,170,2013-07-20 17:00:00
3:30 AM,64.4,62.6,94,29.92,-9999.0,West,3.5,-,N/A,,Clear,270,2013-07-20 17:30:00
4:00 AM,65,63,90,29.93,,WSW,2.3,,,,,250,2013-07-20 18:00:00
4:00 AM,64.4,62.6,94,29.92,6.2,WSW,2.3,-,N/A,,Scattered Clouds,250,2013-07-20 18:00:00
4:30 AM,66.2,62.6,88,29.92,-9999.0,SE,2.3,-,N/A,,Clear,140,2013-07-20 18:30:00
5:00 AM,66.2,62.6,88,29.92,6.2,SE,10.4,-,N/A,,Mostly Cloudy,130,2013-07-20 19:00:00
5:30 AM,66.2,62.6,88,29.92,6.2,SE,9.2,-,N/A,,Partly Cloudy,140,2013-07-20 19:30:00
6:00 AM,66,62,82,29.94,25,SSE,11.5,,,,Partly Cloudy,150,2013-07-20 20:00:00
6:00 AM,66.2,62.6,88,29.95,6.2,SSE,11.5,-,N/A,,Partly Cloudy,150,2013-07-20 20:00:00
6:30 AM,64.4,62.6,94,29.95,6.2,SE,10.4,-,N/A,,Scattered Clouds,130,2013-07-20 20:30:00
7:00 AM,65,62,86,29.97,,SSE,5.8,,,,,150,2013-07-20 21:00:00
7:00 AM,66.2,62.6,88,29.95,6.2,SSE,5.8,-,N/A,,Scattered Clouds,150,2013-07-20 21:00:00
7:30 AM,68.0,62.6,83,29.98,6.2,West,2.3,-,N/A,,Partly Cloudy,280,2013-07-20 21:30:00
8:00 AM,69.8,62.6,78,29.98,6.2,SE,11.5,-,N/A,,Partly Cloudy,140,2013-07-20 22:00:00
8:30 AM,69.8,62.6,78,29.98,6.2,SE,11.5,-,N/A,,Partly Cloudy,130,2013-07-20 22:30:00
9:00 AM,74,63,59,30.01,19,SSE,10.4,,,,Partly Cloudy,150,2013-07-20 23:00:00
9:00 AM,75.2,62.6,65,30.01,6.2,SSE,10.4,-,N/A,,Partly Cloudy,150,2013-07-20 23:00:00
9:30 AM,75.2,64.4,69,30.01,6.2,South,10.4,-,N/A,,Partly Cloudy,170,2013-07-20 23:30:00
10:00 AM,77,64,56,30.01,,South,10.4,,,,,170,2013-07-21 00:00:00
10:00 AM,77.0,64.4,65,30.01,6.2,South,10.4,-,N/A,,Partly Cloudy,170,2013-07-21 00:00:00
10:30 AM,78.8,64.4,61,30.01,6.2,SE,11.5,-,N/A,,Partly Cloudy,140,2013-07-21 00:30:00
11:00 AM,78.8,64.4,61,30.01,6.2,South,11.5,-,N/A,,Partly Cloudy,170,2013-07-21 01:00:00
11:30 AM,78.8,62.6,57,29.98,6.2,SE,11.5,-,N/A,,Partly Cloudy,140,2013-07-21 01:30:00
12:00 PM,81,62,43,29.98,19,SE,10.4,,,,Partly Cloudy,130,2013-07-21 02:00:00
12:00 PM,80.6,62.6,54,29.98,6.2,SE,10.4,-,N/A,,Partly Cloudy,130,2013-07-21 02:00:00
12:30 PM,80.6,60.8,51,29.95,6.2,SE,11.5,-,N/A,,Scattered Clouds,130,2013-07-21 02:30:00
1:00 PM,80,62,43,29.97,,SE,10.4,,,,,140,2013-07-21 03:00:00
1:00 PM,80.6,60.8,51,29.95,6.2,SE,10.4,-,N/A,,Partly Cloudy,140,2013-07-21 03:00:00
1:30 PM,80.6,60.8,51,29.95,6.2,SE,12.7,-,N/A,,Partly Cloudy,130,2013-07-21 03:30:00
2:00 PM,80.6,60.8,51,29.95,6.2,SE,12.7,-,N/A,,Partly Cloudy,140,2013-07-21 04:00:00
2:30 PM,80.6,62.6,54,29.92,6.2,ESE,13.8,-,N/A,,Partly Cloudy,110,2013-07-21 04:30:00
3:00 PM,79,62,46,29.94,19,SE,12.7,,,,Partly Cloudy,130,2013-07-21 05:00:00
3:00 PM,78.8,62.6,57,29.92,6.2,SE,12.7,-,N/A,,Partly Cloudy,130,2013-07-21 05:00:00
3:30 PM,80.6,59.0,48,29.92,6.2,ESE,15.0,-,N/A,,Partly Cloudy,120,2013-07-21 05:30:00
4:00 PM,78,62,49,29.95,,SE,11.5,,,,,130,2013-07-21 06:00:00
4:00 PM,78.8,62.6,57,29.92,6.2,SE,11.5,-,N/A,,Partly Cloudy,130,2013-07-21 06:00:00
4:30 PM,77.0,60.8,57,29.95,6.2,SE,15.0,-,N/A,,Partly Cloudy,130,2013-07-21 06:30:00
5:00 PM,77.0,59.0,54,29.95,6.2,SE,12.7,-,N/A,,Partly Cloudy,130,2013-07-21 07:00:00
5:30 PM,75.2,62.6,65,29.95,6.2,South,8.1,-,N/A,,Partly Cloudy,170,2013-07-21 07:30:00
6:00 PM,73.4,64.4,73,29.95,6.2,SSE,11.5,-,N/A,,Partly Cloudy,150,2013-07-21 08:00:00
6:30 PM,71.6,64.4,78,29.98,6.2,SSE,8.1,-,N/A,,Partly Cloudy,160,2013-07-21 08:30:00
7:00 PM,71,64,73,29.99,,SSE,8.1,,,,,160,2013-07-21 09:00:00
7:00 PM,71.6,64.4,78,29.98,6.2,SSE,8.1,-,N/A,,Partly Cloudy,160,2013-07-21 09:00:00
7:30 PM,71.6,64.4,78,29.98,6.2,South,5.8,-,N/A,,Scattered Clouds,170,2013-07-21 09:30:00
8:00 PM,69.8,64.4,83,30.01,6.2,South,5.8,-,N/A,,Scattered Clouds,170,2013-07-21 10:00:00
8:30 PM,69.8,64.4,83,30.01,6.2,South,4.6,-,N/A,,Scattered Clouds,170,2013-07-21 10:30:00
9:00 PM,71,64,71,30.02,,South,5.8,,,,,170,2013-07-21 11:00:00
9:00 PM,71.6,64.4,78,30.01,6.2,South,5.8,-,N/A,,Mostly Cloudy,170,2013-07-21 11:00:00
9:30 PM,71.6,64.4,78,30.04,6.2,South,8.1,-,N/A,,Mostly Cloudy,180,2013-07-21 11:30:00
10:00 PM,69.8,64.4,83,30.04,6.2,South,8.1,-,N/A,,Mostly Cloudy,170,2013-07-21 12:00:00
10:30 PM,69.8,64.4,83,30.01,6.2,SSE,10.4,-,N/A,,Mostly Cloudy,160,2013-07-21 12:30:00
11:00 PM,69.8,64.4,83,30.01,6.2,SSE,9.2,-,N/A,,Mostly Cloudy,160,2013-07-21 13:00:00
11:30 PM,69.8,62.6,78,30.01,6.2,South,6.9,-,N/A,,Mostly Cloudy,170,2013-07-21 13:30:00